Weather History for Kaneohe MCBH, HI

Change the Weather History Date:

Tuesday, April 2, 2013

  Actual Average Record
Temperature  
Mean Temperature 72 °F -  
Max Temperature 77 °F 76 °F 82 °F (2012)
Min Temperature 66 °F 68 °F 62 °F (2002)
Cooling Degree Days 6    
Growing Degree Days 22 (Base 50)    
Moisture  
Dew Point 54 °F    
Average Humidity 56    
Maximum Humidity 68    
Minimum Humidity 44    
Precipitation  
Precipitation 0.00 in - - ()
Sea Level Pressure  
Sea Level Pressure 30.03 in    
Wind  
Wind Speed 8 mph (North)    
Max Wind Speed 13 mph    
Max Gust Speed -    
Visibility 10 miles    
Events      
Averages and records for this station are not official NWS values.
T = Trace of Precipitation, MM = Missing Value Source: NWS Daily Summary

Daily Weather History Graph

Daily Weather History Graph

Search for Another Location

Airport:

Trip Planner

Search our weather history database for the weather conditions in past years. The results will help you decide how hot, cold, wet, or windy it might be!

Date:

Astronomy

Apr. 02, 2013 Rise Set
Actual Time 6:22 AM HST 6:46 PM HST
Civil Twilight 6:00 AM HST 7:08 PM HST
Nautical Twilight 5:34 AM HST 7:34 PM HST
Astronomical Twilight 5:07 AM HST 8:01 PM HST
Moon 12:32 AM HST (4/2) 11:54 AM HST (4/2)
Length of Visible Light 13h 08m
Length of Day
12h 23m
Waning Gibbous, 53% of the Moon is Illuminated
Apr 2
Waning Gibbous
Apr 2
Last Quarter
Apr 9
New
Apr 18
First Quarter
Apr 25
Full

Hourly Weather History & Observations

Time (HST) Temp. Dew Point Humidity Pressure Visibility Wind Dir Wind Speed Gust Speed Precip Events Conditions
12:57 AM 66.2 °F 54.0 °F 65% 30.01 in - WNW 5.8 mph - N/A   Overcast
1:57 AM 66.2 °F 53.1 °F 63% 29.99 in 7.0 mi WNW 9.2 mph - N/A   Overcast
2:57 AM 66.2 °F 53.1 °F 63% 29.98 in 10.0 mi WNW 8.1 mph - N/A   Scattered Clouds
3:57 AM 66.2 °F 52.0 °F 60% 29.98 in 10.0 mi NW 5.8 mph - N/A   Mostly Cloudy
4:57 AM 66.2 °F 53.1 °F 63% 29.99 in 10.0 mi WNW 4.6 mph - N/A   Mostly Cloudy
5:57 AM 68.0 °F 54.0 °F 61% 30.00 in 10.0 mi NW 8.1 mph - N/A   Mostly Cloudy
6:57 AM 68.0 °F 57.0 °F 68% 30.01 in 10.0 mi North 12.7 mph - N/A   Scattered Clouds
7:57 AM 68.0 °F 55.0 °F 63% 30.04 in 10.0 mi North 9.2 mph - N/A   Mostly Cloudy
8:57 AM 71.4 °F 55.0 °F 56% 30.05 in 10.0 mi North 10.4 mph - N/A   Overcast
9:57 AM 72.0 °F 54.0 °F 53% 30.06 in 10.0 mi North 9.2 mph - N/A   Overcast
10:57 AM 74.3 °F 54.0 °F 49% 30.05 in 10.0 mi NNE 11.5 mph - N/A   Partly Cloudy
11:57 AM 75.7 °F 53.1 °F 45% 30.06 in 10.0 mi North 8.1 mph - N/A   Partly Cloudy
12:57 PM 77.4 °F 54.0 °F 44% 30.04 in 10.0 mi NNE 8.1 mph - N/A   Partly Cloudy
1:57 PM 77.4 °F 55.0 °F 46% 30.04 in 10.0 mi NNE 9.2 mph - N/A   Partly Cloudy
2:57 PM 75.6 °F 53.1 °F 45% 30.02 in 10.0 mi North 10.4 mph - N/A   Partly Cloudy
3:57 PM 75.6 °F 54.0 °F 47% 30.02 in 10.0 mi NNE 9.2 mph - N/A   Partly Cloudy
4:57 PM 72.5 °F 53.1 °F 50% 30.01 in 10.0 mi NNE 9.2 mph - N/A   Partly Cloudy
5:57 PM 72.5 °F 53.1 °F 50% 30.01 in 10.0 mi North 9.2 mph - N/A   Partly Cloudy
6:03 PM - - N/A% - - North - - N/A   Unknown
6:57 PM 69.8 °F 54.0 °F 57% 30.03 in 10.0 mi NNE 10.4 mph - N/A   Partly Cloudy
7:57 PM 70.2 °F 55.9 °F 61% 30.05 in 10.0 mi NNE 9.2 mph - N/A   Clear
8:57 PM 70.2 °F 55.0 °F 59% 30.07 in 10.0 mi NNE 4.6 mph - N/A   Scattered Clouds
9:57 PM 70.2 °F 55.9 °F 61% 30.10 in 10.0 mi NE 3.5 mph - N/A   Scattered Clouds
10:57 PM 69.8 °F 57.0 °F 64% 30.10 in 10.0 mi NE 5.8 mph - N/A   Partly Cloudy
11:57 PM 69.3 °F 55.9 °F 62% 30.08 in 10.0 mi NE 4.6 mph - N/A   Scattered Clouds